Amateur Radio Satellites - All Passes

Search period start: 19 May 2013 01:20
Search period end: 20 May 2013 01:20
Location: Anaheim, 33.8350°N, 117.9140°W

Satellite Date Start Highest point End Downlink Frequencies (MHz)
Time Altitude Azimuth
Oscar 19 19 May 01:33:53 01:36:42 15° 93° (E) 01:39:29 437.125 CW, 437.150 USB
KITSAT 1 19 May 01:37:25 01:43:35 23° 313° (NW) 01:49:48 435.175 FM
MaSat-1 19 May 01:42:29 01:48:56 33° 106° (ESE) 01:54:40 437.345 MHz
RS-15 19 May 01:54:48 02:05:32 51° 54° (NE) 02:15:59 29.354 - 29.394 USB, Beacon 29.352 USB
AO-27 19 May 02:10:13 02:14:48 31° 97° (E) 02:19:22 436.795 MHz FM
Oscar 16 19 May 02:10:41 02:15:38 44° 99° (E) 02:20:31 437.025 USB, Beacon 2401.1428
ITAMSAT 1 19 May 02:17:46 02:22:33 36° 98° (E) 02:27:18 435.822 SSB
Uribyol 2 19 May 02:59:30 03:04:45 81° 284° (WNW) 03:09:58 436.500 FM
Oscar 19 19 May 03:11:17 03:16:19 53° 287° (WNW) 03:21:17 437.125 CW, 437.150 USB
MaSat-1 19 May 03:24:11 03:31:04 43° 296° (WNW) 03:37:00 437.345 MHz
ISS 19 May 03:26:21 03:29:31 45° 133° (SE) 03:32:43 145.800 FM
TMSAT-1 19 May 03:33:28 03:36:01 14° 92° (E) 03:38:33 436.925 FM
Uosat F 19 May 03:36:34 03:40:53 29° 97° (E) 03:45:11 435.120 FM
AO-Echo 19 May 03:46:51 03:51:35 85° 283° (WNW) 03:56:25 ?
AO-27 19 May 03:49:51 03:54:10 27° 291° (WNW) 03:58:28 436.795 MHz FM
Gurwin Techsat 1B 19 May 03:50:55 03:55:42 33° 97° (E) 04:00:26 435.225 FM
Oscar 16 19 May 03:51:05 03:54:37 19° 294° (WNW) 03:58:08 437.025 USB, Beacon 2401.1428
ITAMSAT 1 19 May 03:57:46 04:01:48 23° 292° (WNW) 04:05:51 435.822 SSB
RS-15 19 May 04:07:40 04:17:28 40° 253° (WSW) 04:27:11 29.354 - 29.394 USB, Beacon 29.352 USB
AO-7 19 May 04:23:12 04:28:19 17° 93° (E) 04:33:23 29.400 - 29.500 MHz
ISS 19 May 05:04:08 05:06:25 17° 328° (NNW) 05:08:43 145.800 FM
TMSAT-1 19 May 05:11:03 05:16:16 60° 286° (WNW) 05:21:28 436.925 FM
Uosat F 19 May 05:15:24 05:19:33 27° 291° (WNW) 05:23:42 435.120 FM
STRAND 1 19 May 05:21:00 05:24:05 16° 65° (ENE) 05:27:10 ?
Gurwin Techsat 1B 19 May 05:31:11 05:35:28 25° 292° (WNW) 05:39:45 435.225 FM
AO-7 19 May 06:13:24 06:21:47 81° 289° (WNW) 06:30:08 29.400 - 29.500 MHz
Saudisat 1A 19 May 06:29:18 06:33:49 74° 117° (ESE) 06:38:25 436.775 MHz
STRAND 1 19 May 06:57:55 07:02:50 50° 260° (W) 07:07:47 ?
Sapphire 19 May 07:03:10 07:06:34 17° 104° (ESE) 07:09:59 437.095 MHz 1200 baud AX-25 AFSK
SO-67 19 May 07:37:31 07:39:08 13° 93° (E) 07:40:45 435.3500 MHz FM
KITSAT 1 19 May 07:38:12 07:43:54 20° 45° (NE) 07:49:35 435.175 FM
Hamsat 19 May 07:40:37 07:44:54 57° 100° (E) 07:49:12 145.90 MHz
JAS-1B 19 May 07:42:31 07:46:58 22° 93° (E) 07:51:13 435.800 - 435.900 CW/SSB
AO-7 19 May 08:08:54 08:13:17 16° 306° (NW) 08:17:39 29.400 - 29.500 MHz
PCSat 19 May 08:11:17 08:16:41 85° 114° (ESE) 08:22:07 145.825 MHz
Saudisat 1A 19 May 08:12:10 08:14:02 12° 314° (NW) 08:15:54 436.775 MHz
Oscar 10/S400 19 May 08:26:20 10:47:41 33° 271° (W) 18:23:44 145.825 - 145.975 CW/USB, Beacon 145.810 USB
Sapphire 19 May 08:44:17 08:49:31 51° 299° (WNW) 08:54:48 437.095 MHz 1200 baud AX-25 AFSK
SO-50 19 May 08:50:38 08:54:52 31° 112° (ESE) 08:59:03 436.795 FM
SO-67 19 May 09:09:31 09:12:37 28° 287° (WNW) 09:15:43 435.3500 MHz FM
Hamsat 19 May 09:19:31 09:20:27 11° 294° (WNW) 09:21:23 145.90 MHz
JAS-2 19 May 09:24:38 09:29:01 18° 89° (E) 09:33:05 435.800 - 435.900 CW/SSB, 435.910 FM
Oscar 11 19 May 09:31:25 09:32:39 11° 92° (E) 09:33:53 145.825 FM, Beacon 2401.500 USB
KITSAT 1 19 May 09:32:09 09:40:19 88° 244° (WSW) 09:48:26 435.175 FM
JAS-1B 19 May 09:32:18 09:37:53 38° 291° (WNW) 09:43:04 435.800 - 435.900 CW/SSB
PCSat 19 May 09:58:25 10:00:47 13° 312° (NW) 10:03:09 145.825 MHz
ISS 19 May 09:59:12 10:00:56 13° 29° (NNE) 10:02:39 145.800 FM
HO-68 19 May 10:24:09 10:31:20 80° 105° (ESE) 10:38:30 435.675 MHz FM
OPAL 19 May 10:27:12 10:31:10 23° 98° (E) 10:35:05 ?
SO-50 19 May 10:31:27 10:35:28 26° 307° (NW) 10:39:27 436.795 FM
Oscar 11 19 May 11:04:53 11:09:06 50° 286° (WNW) 11:13:19 145.825 FM, Beacon 2401.500 USB
JAS-2 19 May 11:07:48 11:14:40 61° 288° (WNW) 11:20:42 435.800 - 435.900 CW/SSB, 435.910 FM
KITSAT 1 19 May 11:30:50 11:34:34 14° 260° (W) 11:38:18 435.175 FM
ISS 19 May 11:34:38 11:38:00 74° 224° (SW) 11:41:21 145.800 FM
OPAL 19 May 12:05:38 12:10:03 32° 292° (WNW) 12:14:25 ?
HO-68 19 May 12:13:53 12:18:10 17° 301° (WNW) 12:22:28 435.675 MHz FM
UOSAT-12 19 May 12:14:02 12:18:31 76° 117° (ESE) 12:23:03 437.025 FM, 437.400 FM
MaSat-1 19 May 12:14:42 12:17:36 29° 61° (ENE) 12:20:03 437.345 MHz
Uribyol 2 19 May 12:39:09 12:40:00 10° 62° (ENE) 12:40:50 436.500 FM
Oscar 19 19 May 12:47:28 12:50:27 16° 65° (ENE) 12:53:26 437.125 CW, 437.150 USB
PANSAT 19 May 12:54:04 12:57:01 21° 163° (SSE) 12:59:57 not established
Oscar 16 19 May 13:23:54 13:28:46 43° 72° (ENE) 13:33:41 437.025 USB, Beacon 2401.1428
AO-27 19 May 13:24:50 13:29:22 32° 70° (ENE) 13:33:54 436.795 MHz FM
ITAMSAT 1 19 May 13:32:13 13:36:54 36° 71° (ENE) 13:41:37 435.822 SSB
UOSAT-12 19 May 13:57:39 13:59:13 12° 314° (NW) 14:00:47 437.025 FM, 437.400 FM
Uribyol 2 19 May 14:13:35 14:18:44 81° 257° (WSW) 14:23:57 436.500 FM
Oscar 19 19 May 14:24:14 14:29:18 55° 260° (W) 14:34:24 437.125 CW, 437.150 USB
PANSAT 19 May 14:33:24 14:36:58 35° 176° (S) 14:40:33 not established
Uosat F 19 May 14:46:30 14:50:38 27° 69° (ENE) 14:54:47 435.120 FM
TMSAT-1 19 May 14:50:46 14:53:47 16° 65° (ENE) 14:56:47 436.925 FM
AO-Echo 19 May 14:56:00 15:00:57 83° 76° (ENE) 15:05:47 ?
Saudisat 1A 19 May 15:01:10 15:04:38 21° 51° (NE) 15:08:03 436.775 MHz
AO-27 19 May 15:04:39 15:08:51 25° 264° (W) 15:13:04 436.795 MHz FM
Oscar 16 19 May 15:04:45 15:08:16 18° 266° (W) 15:11:49 437.025 USB, Beacon 2401.1428
Gurwin Techsat 1B 19 May 15:08:20 15:13:07 36° 71° (ENE) 15:17:56 435.225 FM
ITAMSAT 1 19 May 15:12:33 15:16:27 22° 265° (W) 15:20:23 435.822 SSB
AO-7 19 May 15:18:57 15:24:13 19° 56° (NE) 15:29:29 29.400 - 29.500 MHz
RS-15 19 May 16:11:57 16:23:22 49° 109° (ESE) 16:34:21 29.354 - 29.394 USB, Beacon 29.352 USB
PANSAT 19 May 16:13:32 16:17:01 32° 189° (S) 16:20:30 not established
Uosat F 19 May 16:25:03 16:29:19 28° 263° (W) 16:33:36 435.120 FM
TMSAT-1 19 May 16:28:01 16:33:11 56° 259° (W) 16:38:24 436.925 FM
Saudisat 1A 19 May 16:40:18 16:44:24 35° 247° (WSW) 16:48:25 436.775 MHz
Gurwin Techsat 1B 19 May 16:48:59 16:53:07 23° 265° (W) 16:57:17 435.225 FM
PCSat 19 May 17:03:40 17:08:25 30° 57° (ENE) 17:13:08 145.825 MHz
AO-7 19 May 17:07:40 17:15:58 85° 253° (WSW) 17:24:19 29.400 - 29.500 MHz
SO-50 19 May 17:28:26 17:29:48 11° 46° (NE) 17:31:08 436.795 FM
Sapphire 19 May 17:36:04 17:41:24 55° 62° (ENE) 17:46:41 437.095 MHz 1200 baud AX-25 AFSK
PANSAT 19 May 17:54:36 17:56:54 15° 200° (SSW) 17:59:12 not established
JAS-1B 19 May 18:21:40 18:28:17 23° 63° (ENE) 18:34:18 435.800 - 435.900 CW/SSB
RS-15 19 May 18:24:24 18:35:48 47° 308° (NW) 18:46:49 29.354 - 29.394 USB, Beacon 29.352 USB
Hamsat 19 May 18:31:36 18:35:02 25° 71° (ENE) 18:38:28 145.90 MHz
PCSat 19 May 18:47:02 18:51:45 31° 252° (WSW) 18:56:27 145.825 MHz
AO-7 19 May 19:06:13 19:09:39 13° 268° (W) 19:13:07 29.400 - 29.500 MHz
SO-50 19 May 19:06:26 19:10:58 78° 243° (WSW) 19:15:25 436.795 FM
STRAND 1 19 May 19:12:21 19:17:31 77° 103° (ESE) 19:22:39 ?
Sapphire 19 May 19:21:06 19:24:18 16° 256° (WSW) 19:27:30 437.095 MHz 1200 baud AX-25 AFSK
SO-67 19 May 19:41:05 19:44:33 51° 76° (ENE) 19:48:02 435.3500 MHz FM
Hamsat 19 May 20:07:51 20:11:02 21° 265° (W) 20:14:14 145.90 MHz
JAS-1B 19 May 20:08:26 20:18:07 78° 256° (WSW) 20:26:36 435.800 - 435.900 CW/SSB
RS-15 19 May 20:46:37 20:52:15 14° 337° (NNW) 20:57:49 29.354 - 29.394 USB, Beacon 29.352 USB
UOSAT-12 19 May 20:48:00 20:51:41 23° 52° (NE) 20:55:22 437.025 FM, 437.400 FM
HO-68 19 May 20:48:37 20:55:09 41° 67° (ENE) 21:01:41 435.675 MHz FM
STRAND 1 19 May 20:54:45 20:56:01 11° 297° (WNW) 20:57:17 ?
JAS-2 19 May 21:13:12 21:20:14 44° 69° (ENE) 21:27:33 435.800 - 435.900 CW/SSB, 435.910 FM
OPAL 19 May 21:38:15 21:42:41 29° 68° (ENE) 21:47:08 ?
Oscar 11 19 May 21:56:05 22:00:23 77° 77° (ENE) 22:04:42 145.825 FM, Beacon 2401.500 USB
KITSAT 1 19 May 22:03:47 22:09:01 19° 102° (ESE) 22:14:16 435.175 FM
JAS-1B 19 May 22:05:00 22:09:09 14° 269° (W) 22:13:09 435.800 - 435.900 CW/SSB
UOSAT-12 19 May 22:27:46 22:31:52 33° 247° (WSW) 22:35:58 437.025 FM, 437.400 FM
HO-68 19 May 22:36:34 22:42:48 33° 262° (W) 22:49:05 435.675 MHz FM
JAS-2 19 May 22:58:30 23:05:11 35° 265° (W) 23:12:13 435.800 - 435.900 CW/SSB, 435.910 FM
RS-15 19 May 23:07:57 23:12:14 13° 17° (NNE) 23:16:27 29.354 - 29.394 USB, Beacon 29.352 USB
OPAL 19 May 23:17:01 23:21:28 28° 261° (W) 23:25:55 ?
KITSAT 1 19 May 23:55:29 00:03:31 75° 298° (WNW) 00:11:38 435.175 FM
MaSat-1 20 May 01:00:37 01:05:20 19° 103° (ESE) 01:09:43 437.345 MHz

Developed and maintained by Chris Peat, Heavens-Above GmbH. Please read the updated FAQ before sending e-mail. Imprint. DLR
